FENGYUN 1C DEB, 31816

Orbit data source: Space-Track

FENGYUN 1C DEB, 31816 is space debris in SSO originally from a launch on Mon, 10 May 1999 UTC launched from the Taiyaun Space Center, China (TSC). Fengyun 1C debris stems from the Chinese weather satellite Fengyun-1C, which was intentionally destroyed by a Chinese anti-satellite missile in 2007. This event dramatically increased the amount of space debris, with thousands of trackable fragments posing hazards to satellites and human spaceflight. The Fengyun 1C debris cloud has become a focal point in discussions about space sustainability and the need for international regulations to prevent the creation of new debris.

Loading next visibility...
Identifier
31816, 1999-025CHE
Orbit
SSO
Country
Flag of CNCN / PRC
Related business
Manufacturer
Unknown
Mission
Spacecraft
Bus & Motor
Unknown
Mass
Unknown
Launch date (UTC)
1999-05-10 (27 years ago)
Launch vehicle
Unknown
Launch site
Taiyaun Space Center, China (TSC)
Object type
Payload
Rocket body
Debris
Shape & HBR
Unknown shape, 0.1 m
Radar Cross Section
Medium (>0.1 m² and <1 m²)

Expand to show TLE details & history
Last TLE update: 5 hours ago

TLE from 5 hours ago
0 FENGYUN 1C DEB
1 31816U 99025CHE 26255.25865310  .00000939  00000-0  68793-3 0  9991
2 31816  99.0005   7.4577 0121082 125.9834 265.3067 13.94851705975069
Epoch: 2026-09-12T06:12Z
TLE epoch observation values (Epoch: 2026-09-12T06:12:27.627Z)
Latitude
29.55345°
Longitude
-82.05329°
Altitude
923.605 km
Speed
7.389 km/s
True Right ascension
00h 09m 19s
True Declination
29° 24' 34"
Sunlit
Object was in full shadow at epoch
Visualization orbit readout
Latitude
Unknown
Longitude
Unknown
Altitude
Unknown
Speed
Unknown
Apparent Right ascension
Unknown
Apparent Declination
Unknown
Sunlit
N/A
Visualization observer readout
Local Sidereal Time
03:50:01
Azimuth
Unknown
Elevation
Unknown
Doppler factor
Unknown
Orbital elements
Apogee altitude
997.116 km
Perigee altitude
820.651 km
Semi-major axis
7,287.02 km
Eccentricity
0.01211
Inclination
99.0005°
RAAN
7.4577°
Arg. of periapsis
125.9834°
True anomaly
263.9257°
Mean anomaly
265.3067°
Eccentric anomaly
264.61601°
Mean motion
3.48914 °/min
Orbital period
103.18 mins
BSTAR
0.00068793
Loading maneuver chart data...
Computing Atmospheric mass density...
Loading historical data...
Loading historical data...
Loading historical data...
Loading historical data...
Loading historical data...
Loading historical data...
Loading historical data...

Documentation

Showing up to 5 results
|